Flag for Belgium Weather past 2 weeks in Liège, Belgium

Now
54 °F

Passing clouds.


Feels Like: 50 °F
Forecast: 50 / 65 °F
Wind: 10 mph from Southwest

Location: Bierset

Current Time: Aug 23, 2014 at 4:49:56 AM

Latest Report: Aug 23, 2014 at 3:50 AM


Visibility: N/A

Pressure: 29.92 "Hg

Humidity: 88%

Dew point: 50 °F

Location of LiègeLocation

Historic Weather in Liège — Graph

°F

Liège temperature yesterday

Maximum temperature yesterday: 66 °F (at 2:20 PM)
Minimum temperature yesterday: 52 °F (at 5:20 AM)
Average temperature yesterday: 58 °F

Past Weeks' High & Low Weather Summary

 TemperatureHumidityPressure
High75 °F (Aug 8, 1:20 PM)100% (Aug 15, 4:20 AM)30.15 "Hg (Aug 15, 4:20 AM)
Low46 °F (Aug 20, 3:50 AM)46% (Aug 21, 3:20 PM)29.56 "Hg (Aug 10, 5:50 PM)
Average59 °F78%29.89 "Hg
* Reported Aug 8 3:20 AM — Aug 23 3:50 AM, Liège, Weather by CustomWeather, © 2014

Note: Actual official high and low records may vary slightly from our data, if they occured in-between our weather recording intervals... More about our weather records

Advertising

Liège weather history for previous 24 hours

 ConditionsComfort  
Time TempWeatherWind HumidityBarometerVisibility
3:50 AM
Aug 23
54 °FPassing clouds.10 mph88%29.92 "HgN/A
2:50 AM52 °FPassing clouds.8 mph94%29.92 "HgN/A
2:20 AM52 °FPassing clouds.9 mph94%29.92 "HgN/A
1:50 AM54 °FPassing clouds.9 mph88%29.92 "HgN/A
1:20 AM54 °FPassing clouds.9 mph88%29.92 "HgN/A
12:50 AM54 °FPassing clouds.10 mph88%29.92 "HgN/A
12:20 AM54 °FPassing clouds.10 mph94%29.92 "HgN/A
11:50 PM
Aug 22
54 °FPassing clouds.7 mph94%29.92 "HgN/A
11:20 PM55 °FPassing clouds.3 mph88%29.92 "HgN/A
10:50 PM55 °FPassing clouds.3 mph88%29.92 "HgN/A
10:20 PM55 °FPassing clouds.7 mph88%29.92 "HgN/A
9:50 PM55 °FPassing clouds.10 mph94%29.92 "HgN/A
9:20 PM55 °FPassing clouds.12 mph88%29.92 "HgN/A
8:50 PM57 °FSprinkles. Passing clouds.13 mph82%29.92 "HgN/A
8:20 PM57 °FPassing clouds.13 mph82%29.89 "HgN/A
7:50 PM57 °FPassing clouds.14 mph82%29.89 "HgN/A
7:20 PM57 °FScattered clouds.15 mph88%29.89 "HgN/A
6:50 PM57 °FScattered clouds.9 mph88%29.89 "HgN/A
6:20 PM55 °FSprinkles. Scattered clouds.8 mph94%29.89 "Hg6 mi
5:50 PM57 °FSprinkles. Scattered clouds.15 mph82%29.92 "Hg4 mi
5:20 PM63 °FScattered clouds.16 mph56%29.89 "HgN/A
4:50 PM64 °FScattered clouds.16 mph52%29.89 "HgN/A
4:20 PM64 °FScattered clouds.20 mph49%29.89 "HgN/A
3:50 PM64 °FScattered clouds.18 mph49%29.89 "HgN/A
3:20 PM64 °FScattered clouds.20 mph52%29.89 "HgN/A
2:50 PM64 °FScattered clouds.20 mph49%29.89 "HgN/A
2:20 PM66 °FPassing clouds.21 mph49%29.89 "HgN/A
1:50 PM64 °FPassing clouds.21 mph49%29.89 "HgN/A
1:20 PM64 °FPassing clouds.20 mph52%29.89 "HgN/A
12:50 PM63 °FPassing clouds.18 mph56%29.89 "HgN/A
12:20 PM63 °FPassing clouds.18 mph56%29.89 "HgN/A
11:50 AM63 °FPassing clouds.16 mph56%29.92 "HgN/A
11:20 AM61 °FPassing clouds.15 mph59%29.92 "HgN/A
10:50 AM61 °FSunny.15 mph59%29.92 "Hg10 mi
10:20 AM59 °FSunny.13 mph63%29.92 "Hg10 mi
9:50 AM59 °FSunny.13 mph63%29.92 "Hg10 mi
9:20 AM57 °FSunny.12 mph67%29.92 "Hg10 mi
8:50 AM55 °FSunny.13 mph67%29.92 "Hg10 mi
8:20 AM55 °FSunny.13 mph67%29.92 "Hg10 mi
7:50 AM55 °FSunny.13 mph67%29.92 "Hg10 mi
7:20 AM54 °FClear.10 mph72%29.92 "Hg10 mi
6:50 AM54 °FClear.10 mph72%29.92 "Hg10 mi
6:20 AM54 °FPassing clouds.9 mph72%29.92 "HgN/A
5:50 AM52 °FClear.9 mph77%29.92 "Hg10 mi
5:20 AM52 °FClear.10 mph82%29.92 "Hg10 mi
4:50 AM54 °FClear.10 mph77%29.95 "Hg10 mi
4:20 AM54 °FClear.9 mph77%29.95 "Hg10 mi
Weather by CustomWeather, © 2014

See weather overviewHow to use our weather pages